星链-36532(STARLINK-36532)

导读

STARLINK-36532是美国SpaceX星链星座的一员,于2026年1月30日发射升空。作为低轨卫星互联网星座的组成部分,它主要承担全球宽带互联网接入服务的任务,旨在实现覆盖全球偏远区域的网络连接,此次发射延续了星链星座扩容节奏,推进美国卫星互联网组网部署进程。

基本信息
目录编号:
67628
目录名称:
STARLINK-36532
国际标识:
2026-020M
轨道中心:
EARTH
卫星名称:
星链-36532
卫星全名:
星链-36532(STARLINK-36532)
卫星状态:
在轨 (已飞行134 天)
发射日期:
2026-01-30 UTC
国别 :
美国 (US)
星等 :
--
轨道信息
数据来源 国际轨道数据
星历时间: 2026-06-12T11:50:37+0800
1天前
查看轨道信息
半长轴: 6861.125km
偏心率: 0.0001886
轨道倾角: 42.996°
近地点辐角 268.560°
升交点赤经 326.079°
平近点角 91.504°
近地点: 481.693km
远地点: 484.283km
周期: 94.265分钟
每日圈数: 15.276007
详细信息
固有亮度:
5
最大亮度:
2.5
卫星平台:
Starlink V1.0
覆盖范围:
全球
运营商:
太空探索技术公司
运营商所在国:
美国
制造商(研发单位):
太空探索技术公司
制造商所在国:
美国
使用方式:
暂无
卫星简介
Starlink 计划是 SpaceX 推出的全球卫星互联网项目,通过发射低轨道卫星,为全球尤其是偏远地区提供高速、低延迟的互联网服务。自 2019 年起,Starlink 已部署数千颗卫星,旨在缩小全球数字鸿沟,推动互联网普及。该项目还为军事、航空等行业提供通信支持,带来广泛经济效益。
2D轨道图
3D轨道图
轨道高度分析图
轨道倾角分析图
轨道综合分析图
查看轨道综合分析图